DW0487 Weather Reports


time (UTC)temp
C
wind
direction
speed
KPH
gust
KPH
rain 1hr
cm
rain 24hr
cm
rain mn
cm
humidity
%
barometer
mb
20260506163019 14 36 6.4 16.1 0.00 0.00 0.00 62 1004.3
20260506161521 15 38 4.8 16.1 0.00 0.00 0.00 62 1004.1
20260506160004 15 36 3.2 14.5 0.00 0.00 0.00 62 1004.0
20260506154504 15 70 1.6 8.0 0.00 0.00 0.00 65 1004.0
20260506153004 14 28 0.0 6.4 0.00 0.00 0.00 66 1003.6
20260506151502 14 310 1.6 9.7 0.00 0.00 0.00 67 1003.6
20260506150003 14 286 1.6 6.4 0.00 0.00 0.00 65 1003.5
20260506144501 14 174 6.4 12.9 0.00 0.00 0.00 69 1003.7
20260506143001 14 144 8.0 20.9 0.00 0.00 0.00 69 1004.0
20260506141500 13 184 9.7 24.1 0.00 0.00 0.00 70 1003.8
20260506140101 14 257 12.9 29.0 0.00 0.00 0.00 70 1003.8
20260506134600 15 238 12.9 37.0 0.00 0.00 0.00 67 1003.2
20260506133115 17 232 3.2 9.7 0.00 0.00 0.00 62 1002.8
20260506131616 17 9 8.0 12.9 0.00 0.00 0.00 63 1002.2
20260506130059 17 30 4.8 12.9 0.00 0.00 0.00 63 1002.2
20260506124558 17 47 6.4 17.7 0.00 0.00 0.00 63 1002.3
20260506123057 17 42 11.3 22.5 0.00 0.00 0.00 61 1002.4
20260506121559 17 53 11.3 22.5 0.00 0.00 0.00 60 1002.4
20260506120104 18 24 12.9 22.5 0.00 0.00 0.00 58 1002.4
20260506114554 18 20 11.3 19.3 0.00 0.00 0.00 61 1002.4
20260506113052 17 9 14.5 20.9 0.00 0.00 0.00 59 1002.4
20260506111549 17 342 11.3 20.9 0.00 0.00 0.00 58 1002.9
20260506110057 17 343 12.9 22.5 0.00 0.00 0.00 59 1003.2
20260506104556 16 41 11.3 22.5 0.00 0.00 0.00 59 1003.3
20260506103045 15 28 11.3 19.3 0.00 0.00 0.00 60 1003.5
20260506101536 15 340 6.4 12.9 0.00 0.00 0.00 62 1003.6
20260506100033 14 31 9.7 17.7 0.00 0.00 0.00 63 1003.8
20260506094532 14 346 6.4 17.7 0.00 0.00 0.00 66 1003.8
20260506093028 13 9 9.7 14.5 0.00 0.00 0.00 66 1003.9
20260506091523 13 36 9.7 17.7 0.00 0.00 0.00 65 1004.0
20260506090019 13 21 4.8 9.7 0.00 0.00 0.00 65 1004.3
20260506084532 13 34 6.4 12.9 0.00 0.00 0.00 66 1004.3
20260506083017 13 346 8.0 16.1 0.00 0.00 0.00 65 1004.3
20260506081517 13 38 8.0 17.7 0.00 0.00 0.00 66 1004.2
20260506073003 11 59 4.8 11.3 0.00 0.00 0.00 76 1004.6
20260506071600 11 40 4.8 8.0 0.00 0.00 0.00 79 1004.8
20260506061555 7 46 0.0 3.2 0.00 0.00 0.00 89 1005.7
20260506044540 5 295 0.0 3.2 0.00 0.00 0.00 90 1006.5
20260506043044 5 159 0.0 0.0 0.00 0.00 0.00 90 1006.7
20260506041537 5 114 0.0 3.2 0.00 0.00 0.00 90 1006.3
20260506040038 5 210 0.0 3.2 0.00 0.00 0.00 90 1006.5
20260506034534 5 153 0.0 0.0 0.00 0.00 0.00 90 1006.5
20260506033033 5 227 1.6 3.2 0.00 0.00 0.00 89 1006.8
20260506031540 5 216 0.0 0.0 0.00 0.00 0.00 89 1006.8
20260506030030 5 96 0.0 1.6 0.00 0.00 0.00 89 1006.9
20260506024528 5 117 0.0 0.0 0.00 0.00 0.00 88 1007.4
20260506023047 5 117 0.0 0.0 0.00 0.00 0.00 88 1007.6
20260506021536 5 133 0.0 3.2 0.00 0.00 0.00 88 1007.8
20260506020026 5 309 0.0 0.0 0.00 0.00 0.00 87 1007.8
20260506014522 5 309 0.0 1.6 0.00 0.00 0.00 87 1007.5
20260506013029 6 173 0.0 0.0 0.00 0.00 0.00 86 1007.5
20260506011519 6 173 0.0 0.0 0.00 0.00 0.00 85 1007.5
20260506010016 6 173 0.0 0.0 0.00 0.00 0.00 85 1007.8
20260506004514 6 182 1.6 4.8 0.00 0.00 0.00 84 1007.9
20260506003014 7 230 0.0 0.0 0.00 0.00 0.00 83 1007.9
20260506001508 7 230 0.0 1.6 0.00 0.00 0.00 82 1007.9
20260506000006 7 230 0.0 3.2 0.00 0.00 0.00 81 1008.0
20260505234503 8 174 1.6 4.8 0.00 0.00 0.00 81 1008.1
20260505233105 8 238 0.0 1.6 0.00 0.00 0.00 80 1008.1
20260505231612 8 238 0.0 3.2 0.00 0.00 0.00 79 1008.1
20260505230055 9 238 1.6 6.4 0.00 0.00 0.00 78 1008.0
20260505224555 10 288 0.0 4.8 0.00 0.00 0.00 76 1008.0
20260505223050 10 281 3.2 6.4 0.00 0.00 0.00 75 1008.1
20260505221547 11 26 3.2 9.7 0.00 0.00 0.00 75 1008.1
20260505220048 11 21 4.8 12.9 0.00 0.00 0.00 74 1008.0
20260505214554 11 54 11.3 17.7 0.00 0.00 0.00 73 1008.1
20260505213044 11 23 4.8 16.1 0.00 0.00 0.00 72 1008.1
20260505211542 12 49 9.7 20.9 0.00 0.00 0.00 71 1008.0
20260505210044 12 24 6.4 17.7 0.00 0.00 0.00 71 1008.0
20260505204541 12 47 8.0 19.3 0.00 0.00 0.00 73 1007.8
20260505203101 11 66 11.3 19.3 0.00 0.00 0.00 76 1007.5
20260505201545 11 60 4.8 12.9 0.00 0.00 0.00 76 1007.4
20260505200048 12 36 3.2 6.4 0.00 0.00 0.00 75 1007.1
20260505194540 12 12 1.6 6.4 0.00 0.00 0.00 74 1006.5
20260505193039 12 26 8.0 14.5 0.00 0.00 0.00 73 1006.1
20260505191540 13 24 8.0 14.5 0.00 0.00 0.00 72 1005.8
20260505190138 13 42 6.4 20.9 0.00 0.00 0.00 71 1005.5
20260505184549 14 36 6.4 14.5 0.00 0.00 0.00 69 1005.5
20260505183049 15 44 8.0 14.5 0.00 0.00 0.00 64 1005.5
20260505181549 16 28 3.2 8.0 0.00 0.00 0.00 55 1005.0
20260505180029 16 84 3.2 9.7 0.00 0.00 0.00 46 1004.8
20260505174538 17 17 1.6 6.4 0.00 0.00 0.00 45 1004.6
20260505173029 17 248 3.2 11.3 0.00 0.00 0.00 44 1004.5
20260505171527 17 114 1.6 9.7 0.00 0.00 0.00 46 1004.4
20260505170001 17 209 6.4 17.7 0.00 0.00 0.00 45 1004.3
20260505164501 17 194 8.0 19.3 0.00 0.00 0.00 45 1004.1